When you browse on this site, cookies collect data to enhance your experience and personalize the content and advertising you see.
Visit our Privacy Policy to learn more. By continuing to use the site, you agree to this use of cookies and data.
  • In Lithuania
  • List of Countries
  • For 7 days
  • Water Temperature
  • Weather Map
  • Weather Widgets
  • user-avatar
    Login

    Hourly Weather Kojecin

    Today, 23 August, Friday

    Time Temperature Precipitation Wind Pressure Humidity
    00:00 +17°C° 0 mm 2 mps 756 mmHg 80%
    01:00 +18°C° 0 mm 1 mps 757 mmHg 80%
    02:00 +16°C° 0 mm 1 mps 757 mmHg 81%
    03:00 +16°C° 0 mm 1 mps 756 mmHg 83%
    04:00 +15°C° 0 mm 0 mps 756 mmHg 84%
    05:00 +18°C° 0 mm 1 mps 757 mmHg 81%
    06:00 +19°C° 0 mm 1 mps 757 mmHg 79%
    07:00 +19°C° 0 mm 1 mps 757 mmHg 77%
    08:00 +21°C° 0 mm 1 mps 757 mmHg 71%
    09:00 +21°C° 0 mm 2 mps 757 mmHg 65%
    10:00 +24°C° 0 mm 3 mps 757 mmHg 59%
    11:00 +24°C° 0 mm 3 mps 757 mmHg 58%
    12:00 +25°C° 0 mm 3 mps 756 mmHg 57%
    13:00 +25°C° 0 mm 3 mps 756 mmHg 56%
    14:00 +26°C° 0 mm 3 mps 756 mmHg 56%
    15:00 +26°C° 0 mm 3 mps 756 mmHg 56%
    16:00 +26°C° 0 mm 3 mps 755 mmHg 56%
    17:00 +25°C° 0 mm 2 mps 755 mmHg 61%
    18:00 +23°C° 0 mm 2 mps 755 mmHg 67%
    19:00 +21°C° 0 mm 2 mps 755 mmHg 72%
    20:00 +20°C° 0 mm 2 mps 755 mmHg 75%
    21:00 +20°C° 0 mm 2 mps 755 mmHg 78%
    22:00 +19°C° 0 mm 2 mps 755 mmHg 81%
    23:00 +19°C° 0 mm 2 mps 755 mmHg 84%

    Tomorrow, 24 August, Saturday

    Time Temperature Precipitation Wind Pressure Humidity
    00:00 +18°C° 0 mm 2 mps 755 mmHg 87%
    01:00 +19°C° 0 mm 1 mps 755 mmHg 90%
    02:00 +17°C° 0 mm 2 mps 755 mmHg 91%
    03:00 +17°C° 0 mm 2 mps 755 mmHg 92%
    04:00 +17°C° 0 mm 2 mps 755 mmHg 93%
    05:00 +18°C° 0 mm 2 mps 754 mmHg 89%
    06:00 +18°C° 0 mm 2 mps 754 mmHg 84%
    07:00 +19°C° 0 mm 3 mps 754 mmHg 80%
    08:00 +21°C° 0 mm 3 mps 754 mmHg 74%
    09:00 +24°C° 0 mm 3 mps 754 mmHg 68%
    10:00 +25°C° 0 mm 4 mps 754 mmHg 62%
    11:00 +26°C° 0 mm 4 mps 754 mmHg 59%
    12:00 +27°C° 0 mm 4 mps 754 mmHg 57%
    13:00 +28°C° 0 mm 4 mps 753 mmHg 54%
    14:00 +28°C° 0 mm 4 mps 753 mmHg 54%
    15:00 +29°C° 0 mm 4 mps 753 mmHg 54%
    16:00 +29°C° 0 mm 4 mps 753 mmHg 55%
    17:00 +27°C° 0 mm 4 mps 753 mmHg 59%
    18:00 +26°C° 0 mm 4 mps 752 mmHg 64%
    19:00 +24°C° 0 mm 3 mps 752 mmHg 69%
    20:00 +22°C° 0 mm 3 mps 752 mmHg 72%
    21:00 +22°C° 0 mm 3 mps 753 mmHg 75%
    22:00 +21°C° 0 mm 3 mps 753 mmHg 78%
    23:00 +20°C° 0 mm 3 mps 753 mmHg 80%

    Day after tomorrow, 25 August, Sunday

    Time Temperature Precipitation Wind Pressure Humidity
    00:00 +20°C° 0 mm 3 mps 752 mmHg 82%
    01:00 +19°C° 0 mm 3 mps 752 mmHg 84%
    02:00 +19°C° 0 mm 3 mps 752 mmHg 85%
    03:00 +19°C° 0 mm 2 mps 752 mmHg 86%
    04:00 +18°C° 0 mm 2 mps 752 mmHg 87%
    05:00 +19°C° 0 mm 3 mps 752 mmHg 84%
    06:00 +19°C° 0 mm 3 mps 752 mmHg 81%
    07:00 +20°C° 0 mm 3 mps 752 mmHg 78%
    08:00 +21°C° 0 mm 3 mps 752 mmHg 73%
    09:00 +24°C° 0 mm 3 mps 752 mmHg 68%
    10:00 +26°C° 0 mm 3 mps 752 mmHg 63%
    11:00 +27°C° 0 mm 3 mps 752 mmHg 59%
    12:00 +28°C° 0 mm 3 mps 752 mmHg 55%
    13:00 +30°C° 0 mm 3 mps 751 mmHg 51%
    14:00 +30°C° 0.1 mm 3 mps 751 mmHg 51%
    15:00 +30°C° 0.1 mm 3 mps 751 mmHg 51%
    16:00 +31°C° 0.1 mm 3 mps 751 mmHg 50%
    17:00 +29°C° 0 mm 3 mps 751 mmHg 56%
    18:00 +27°C° 0 mm 3 mps 750 mmHg 61%
    19:00 +26°C° 0 mm 3 mps 750 mmHg 67%
    20:00 +25°C° 0 mm 3 mps 751 mmHg 71%
    21:00 +24°C° 0 mm 3 mps 751 mmHg 75%
    22:00 +22°C° 0 mm 3 mps 751 mmHg 80%
    23:00 +21°C° 0 mm 2 mps 751 mmHg 82%

    26 August, Monday

    Time Temperature Precipitation Wind Pressure Humidity
    00:00 +21°C° 0 mm 2 mps 751 mmHg 84%
    01:00 +21°C° 0 mm 2 mps 751 mmHg 86%
    02:00 +20°C° 0 mm 2 mps 750 mmHg 87%
    03:00 +20°C° 0 mm 2 mps 750 mmHg 88%
    04:00 +20°C° 0 mm 2 mps 750 mmHg 90%
    05:00 +21°C° 0 mm 2 mps 750 mmHg 86%
    06:00 +21°C° 0 mm 2 mps 750 mmHg 83%
    07:00 +23°C° 0 mm 2 mps 750 mmHg 79%
    08:00 +25°C° 0 mm 2 mps 751 mmHg 71%
    09:00 +27°C° 0 mm 2 mps 751 mmHg 63%
    10:00 +29°C° 0 mm 1 mps 751 mmHg 55%
    11:00 +31°C° 0 mm 2 mps 751 mmHg 50%
    12:00 +32°C° 0 mm 2 mps 751 mmHg 46%
    13:00 +34°C° 0 mm 2 mps 751 mmHg 42%
    14:00 +34°C° 0 mm 2 mps 750 mmHg 42%
    15:00 +34°C° 0 mm 2 mps 750 mmHg 41%
    16:00 +34°C° 0 mm 2 mps 750 mmHg 41%
    17:00 +31°C° 0.2 mm 2 mps 750 mmHg 48%
    18:00 +29°C° 0.2 mm 2 mps 750 mmHg 54%
    19:00 +27°C° 0.2 mm 2 mps 750 mmHg 60%
    20:00 +26°C° 0.2 mm 2 mps 750 mmHg 63%
    21:00 +25°C° 0.2 mm 2 mps 750 mmHg 65%
    22:00 +25°C° 0.2 mm 2 mps 750 mmHg 68%
    23:00 +24°C° 0 mm 2 mps 750 mmHg 69%

    27 August, Tuesday

    Time Temperature Precipitation Wind Pressure Humidity
    00:00 +24°C° 0 mm 2 mps 750 mmHg 70%
    01:00 +24°C° 0 mm 2 mps 750 mmHg 72%
    02:00 +23°C° 0 mm 2 mps 750 mmHg 73%
    03:00 +23°C° 0 mm 1 mps 750 mmHg 74%
    04:00 +23°C° 0 mm 1 mps 750 mmHg 75%
    05:00 +24°C° 0.2 mm 1 mps 750 mmHg 73%
    06:00 +25°C° 0.2 mm 1 mps 750 mmHg 71%
    07:00 +25°C° 0.2 mm 2 mps 750 mmHg 69%
    08:00 +27°C° 0 mm 2 mps 750 mmHg 61%
    09:00 +29°C° 0 mm 2 mps 750 mmHg 54%
    10:00 +31°C° 0 mm 2 mps 750 mmHg 46%
    11:00 +32°C° 0 mm 2 mps 750 mmHg 43%
    12:00 +34°C° 0 mm 3 mps 750 mmHg 39%
    13:00 +35°C° 0 mm 3 mps 750 mmHg 36%
    14:00 +35°C° 0 mm 3 mps 750 mmHg 37%
    15:00 +35°C° 0 mm 3 mps 750 mmHg 38%
    16:00 +35°C° 0 mm 3 mps 750 mmHg 39%
    17:00 +33°C° 0 mm 3 mps 750 mmHg 43%
    18:00 +30°C° 0 mm 2 mps 750 mmHg 48%
    19:00 +28°C° 0 mm 2 mps 750 mmHg 52%
    20:00 +28°C° 0.2 mm 2 mps 750 mmHg 55%
    21:00 +27°C° 0.2 mm 2 mps 750 mmHg 57%
    22:00 +26°C° 0.2 mm 2 mps 750 mmHg 60%
    23:00 +25°C° 0 mm 2 mps 750 mmHg 60%

    28 August, Wednesday

    Time Temperature Precipitation Wind Pressure Humidity
    00:00 +25°C° 0 mm 2 mps 750 mmHg 61%
    01:00 +25°C° 0 mm 2 mps 750 mmHg 62%
    02:00 +24°C° 0 mm 2 mps 750 mmHg 63%
    03:00 +24°C° 0 mm 2 mps 750 mmHg 63%
    04:00 +24°C° 0 mm 1 mps 750 mmHg 63%
    05:00 +25°C° 0 mm 2 mps 750 mmHg 62%
    06:00 +25°C° 0 mm 2 mps 750 mmHg 61%
    07:00 +26°C° 0 mm 2 mps 750 mmHg 60%
    08:00 +28°C° 0 mm 2 mps 750 mmHg 54%
    09:00 +31°C° 0 mm 2 mps 750 mmHg 47%
    10:00 +34°C° 0 mm 2 mps 750 mmHg 41%
    11:00 +34°C° 0 mm 2 mps 750 mmHg 38%
    12:00 +35°C° 0 mm 2 mps 750 mmHg 35%
    13:00 +36°C° 0 mm 2 mps 749 mmHg 32%
    14:00 +35°C° 0 mm 2 mps 749 mmHg 35%
    15:00 +34°C° 0 mm 2 mps 749 mmHg 38%
    16:00 +33°C° 0 mm 1 mps 748 mmHg 41%
    17:00 +31°C° 0 mm 1 mps 748 mmHg 43%
    18:00 +30°C° 0 mm 1 mps 748 mmHg 46%
    19:00 +29°C° 0 mm 1 mps 748 mmHg 48%
    20:00 +28°C° 0.1 mm 1 mps 748 mmHg 51%
    21:00 +27°C° 0.1 mm 1 mps 748 mmHg 55%
    22:00 +26°C° 0.1 mm 2 mps 749 mmHg 58%
    23:00 +25°C° 0 mm 2 mps 748 mmHg 61%
    Show more